RH
17 19 21 22 22 23 25 27 28 30 33 36 38 39 40 39 37 34 30 31 32 32 31 31 29 27 23 21 22 22 17 14 14 15 18 19 20 21 22 23 26 29 33 34 34 34 37 41 42 44 44 41 41 43 47 48 49 47 52 62 60 57 55 54 55 59 62 58 57 57 58 62 59 53 52 54 56 57 58 57 57 56 58 60 60 62 62 61
17 19 21 22 22 22 24 27 30 34 37 39 39 39 38 36 34 30 27 29 31 31 29 28 26 23 21 20 22 24 19 15 17 19 20 21 21 23 23 24 28 32 36 37 37 37 37 36 36 42 45 44 43 46 49 49 54 50 51 61 58 57 60 61 61 61 64 63 60 59 59 62 60 57 57 59 58 56 55 53 52 54 56 58 58 59 58 58
17 19 21 21 22 22 23 26 31 36 39 40 39 38 36 34 33 28 26 29 30 31 29 27 24 21 21 21 23 25 20 18 20 21 21 23 24 25 26 29 34 36 39 41 43 44 44 43 40 42 47 49 46 46 49 50 54 52 53 59 57 57 60 59 61 63 66 67 64 62 61 61 60 58 57 56 53 52 52 50 51 52 54 55 56 58 57 57
18 20 21 21 21 22 23 27 32 37 40 41 40 38 34 31 30 27 25 28 30 31 30 28 26 24 23 23 25 24 21 21 22 22 21 23 27 28 29 33 38 40 42 44 47 50 50 50 49 50 54 52 47 47 51 53 53 53 56 58 56 59 60 57 61 63 63 63 61 59 57 55 53 52 51 53 54 51 49 49 50 51 52 54 55 55 55 55
18 20 21 21 21 21 24 28 32 36 39 41 40 37 33 29 28 26 25 27 30 33 35 33 29 28 26 26 26 23 26 28 25 25 25 26 31 33 33 35 38 40 41 43 48 52 54 55 55 59 59 54 55 55 55 56 56 55 56 58 59 63 62 58 59 58 54 53 53 52 51 48 47 49 49 53 55 49 46 45 46 48 49 51 52 51 50 49
17 20 21 21 21 21 24 28 32 35 38 41 39 36 33 29 27 27 26 27 29 33 39 39 35 31 28 27 26 26 34 34 28 30 31 33 39 40 40 40 41 42 43 46 47 47 51 56 61 65 61 55 57 58 57 56 57 60 62 62 62 63 60 56 53 51 49 50 49 46 44 42 43 44 44 46 48 46 46 45 44 46 47 47 47 46 46 45
17 19 21 21 20 21 24 28 32 34 37 40 38 35 33 30 29 29 29 28 29 31 37 42 41 37 32 30 29 31 35 32 30 32 33 37 42 44 45 44 44 44 45 47 45 43 48 55 63 67 64 58 56 58 62 58 56 61 62 60 57 56 53 51 50 49 49 49 44 41 40 39 39 39 40 43 45 47 48 45 43 44 44 43 42 42 41 40
16 19 20 21 20 21 25 28 31 33 36 39 38 35 33 31 31 31 31 30 30 31 33 40 43 42 38 36 35 35 35 33 33 33 34 37 38 38 40 40 41 42 45 47 46 45 48 54 60 63 62 59 55 59 64 60 57 58 56 55 54 54 52 50 50 47 45 43 40 40 39 36 37 39 41 43 43 44 45 41 39 41 42 42 42 42 39 38
16 18 20 21 20 22 25 28 31 32 35 39 37 34 32 31 31 31 31 30 31 32 33 38 44 44 43 41 41 40 38 37 39 39 41 40 38 36 37 40 41 43 46 45 46 48 51 55 56 56 59 58 53 53 59 61 57 55 56 58 56 54 51 49 46 43 42 40 40 40 37 35 37 39 39 41 40 41 43 40 39 42 43 42 43 41 38 36
15 17 20 20 20 22 25 27 30 32 34 38 37 34 33 32 31 31 31 30 31 32 34 37 41 43 44 44 45 45 42 41 43 45 44 41 39 39 42 44 43 45 45 42 44 47 51 55 54 53 56 58 55 50 52 56 53 51 53 51 49 46 43 43 40 38 39 38 39 39 35 35 37 39 40 40 40 42 43 41 43 43 41 40 39 39 39 40
14 16 19 20 20 23 24 25 29 31 32 37 38 35 33 32 31 30 30 31 31 33 35 34 37 40 41 43 45 46 45 45 46 47 43 39 40 43 45 46 45 45 45 44 44 45 49 52 54 56 54 55 55 48 45 46 45 45 45 42 41 39 37 38 36 35 37 35 36 36 33 33 35 38 41 40 42 46 46 44 46 45 41 40 39 40 41 43
14 16 18 19 20 23 23 24 28 30 31 34 37 36 33 32 31 31 30 31 32 33 34 34 34 35 37 39 42 42 43 45 46 46 44 42 43 45 46 45 45 45 45 44 43 43 46 47 51 53 50 50 50 46 42 40 40 42 42 41 40 40 40 39 37 37 39 38 39 42 37 33 33 34 36 39 42 46 46 45 46 44 43 43 44 44 43 43
13 14 17 19 21 23 22 22 25 29 30 32 35 36 34 32 32 31 31 31 32 33 34 33 31 32 35 37 38 39 40 41 43 44 44 43 44 44 42 42 43 42 41 40 40 41 44 44 46 46 45 45 44 43 41 39 41 42 43 46 46 44 41 38 39 39 39 40 44 48 42 36 35 34 34 36 38 43 44 43 42 41 42 43 44 43 42 44
11 13 16 19 21 23 22 20 22 24 27 29 32 34 34 33 32 31 31 31 31 32 33 33 31 31 34 35 37 39 39 39 39 40 41 41 41 40 38 38 39 39 38 37 39 40 42 41 42 42 42 42 41 40 41 41 42 44 44 47 47 43 41 40 41 42 43 43 43 45 42 38 40 37 36 36 37 40 38 36 37 37 39 39 39 40 41 41
10 11 14 18 21 23 22 20 19 21 23 26 29 31 33 34 33 32 32 31 31 32 33 34 32 31 33 34 36 38 38 37 37 37 38 38 38 36 35 35 35 36 37 37 38 40 42 42 41 42 40 39 40 42 43 41 42 46 47 45 43 42 42 41 39 42 45 44 43 45 41 37 39 39 39 38 37 38 36 33 32 32 33 34 35 37 37 36
11 10 12 16 20 21 21 20 19 20 22 23 25 27 30 32 32 32 32 32 31 32 34 35 33 32 33 32 33 36 36 35 34 34 35 35 36 35 33 33 33 33 34 35 37 38 40 41 40 40 40 40 41 43 45 42 40 43 45 43 42 43 42 40 38 39 41 41 42 44 41 36 37 38 39 38 36 37 38 36 31 30 30 30 31 31 32 34
11 10 11 14 18 19 20 20 20 20 20 22 23 24 27 29 30 31 31 31 31 31 33 34 32 33 33 30 31 32 33 32 31 32 32 32 33 33 32 32 31 31 32 33 34 36 37 39 40 39 41 41 40 46 50 44 39 39 39 38 38 39 41 39 39 38 39 42 41 40 40 36 35 38 38 38 37 37 40 38 34 33 30 28 29 29 29 31
12 10 10 12 15 16 18 19 20 19 18 20 22 23 24 26 28 30 30 30 30 31 33 32 32 35 34 30 29 29 30 30 28 29 30 30 30 31 31 30 30 30 33 34 33 34 36 37 38 38 41 40 39 47 47 39 37 38 39 39 36 35 37 37 38 38 39 42 42 41 42 37 34 36 37 37 36 38 39 38 36 32 29 26 26 29 30 29
13 11 10 11 12 14 16 18 19 19 18 18 21 21 22 25 27 28 30 30 30 32 34 32 31 34 34 30 29 28 27 27 27 28 29 29 29 30 30 29 30 30 32 34 32 32 33 35 37 38 40 39 36 38 37 33 34 35 36 38 36 34 34 34 36 36 39 43 43 44 43 38 34 34 37 37 36 38 38 35 35 33 30 27 25 27 28 28
14 12 11 10 10 11 13 16 18 18 17 18 20 20 21 24 26 29 30 29 30 31 31 30 28 30 31 31 30 27 26 26 26 27 27 28 29 30 30 30 29 30 31 32 31 31 33 37 37 36 36 34 32 32 31 32 32 34 36 36 34 34 34 33 34 35 36 43 41 37 38 36 33 33 35 37 37 37 38 36 35 34 33 32 29 28 26 25
15 13 12 11 11 10 11 13 14 16 16 17 19 20 21 23 25 28 29 27 29 29 29 28 27 26 28 29 30 29 28 26 26 27 26 28 30 30 30 30 30 30 29 29 29 30 33 35 31 29 31 31 31 31 30 30 31 34 37 36 35 35 33 31 34 34 34 40 37 33 38 37 32 32 32 35 38 37 38 37 36 33 32 31 30 30 28 26
15 14 13 12 11 11 11 11 12 14 15 16 19 20 21 22 23 25 26 26 28 27 28 27 26 26 26 27 28 29 29 26 25 25 26 28 30 30 29 29 29 29 28 28 30 33 34 32 28 27 30 32 32 32 32 31 32 34 35 38 38 35 34 33 32 31 33 37 33 31 38 35 29 30 31 33 36 36 35 35 34 33 32 32 32 32 30 29
14 14 14 13 12 11 11 12 12 13 14 15 18 20 20 20 22 24 24 25 25 25 26 26 26 26 26 26 26 26 27 27 25 25 26 28 29 29 29 29 29 27 27 28 30 34 33 29 27 27 29 31 32 32 32 32 33 35 35 38 38 35 36 37 33 32 31 32 30 32 36 31 28 30 31 31 33 34 33 33 32 31 31 31 31 30 29 31
14 14 14 13 12 12 12 12 12 13 14 15 17 19 19 19 21 24 25 24 24 23 24 24 24 25 25 26 26 24 25 26 26 26 27 28 29 30 29 27 27 26 26 26 27 30 29 27 26 26 27 28 30 30 32 34 34 33 34 36 36 33 34 34 32 32 32 32 33 37 36 29 29 31 31 31 31 32 32 33 34 32 30 28 27 28 28 30
14 13 14 13 12 13 12 13 14 15 16 17 18 18 19 21 22 24 25 25 25 22 22 22 22 24 25 25 26 24 23 23 25 26 26 27 29 29 26 25 25 24 24 23 24 25 25 24 24 24 24 25 27 28 29 34 35 32 32 33 33 32 31 32 32 35 40 39 35 39 41 33 30 31 30 30 31 33 33 33 35 34 33 30 31 32 32 32
14 13 14 14 13 12 13 15 17 18 19 19 21 22 23 24 24 25 27 27 27 23 21 22 22 23 24 24 25 24 23 22 23 25 26 27 28 26 25 23 22 21 21 21 22 22 21 22 23 23 23 23 25 26 27 31 36 34 30 29 31 32 32 33 34 37 42 39 32 36 42 39 32 30 30 30 32 32 32 33 33 33 33 33 33 33 33 33
15 14 13 14 13 12 14 17 19 20 21 22 23 25 25 25 25 28 29 28 26 22 20 21 23 23 23 24 24 24 25 24 22 23 25 27 26 24 23 22 20 20 19 21 24 22 18 19 21 21 22 23 24 26 27 29 33 33 28 28 30 31 33 35 36 37 37 35 34 34 39 40 35 31 31 32 32 30 29 31 31 30 31 31 32 32 32 30
14 14 13 14 14 13 14 17 20 22 23 23 24 24 25 26 27 29 31 29 23 20 20 20 21 22 22 23 24 24 25 24 23 23 24 26 25 22 22 21 20 20 18 21 25 21 16 17 19 20 21 22 24 25 27 28 29 30 28 29 30 30 33 34 37 39 36 38 40 34 37 42 38 32 33 34 33 29 25 27 28 29 29 28 30 31 29 26
14 13 13 14 14 14 13 16 20 22 25 24 23 23 24 27 29 30 32 31 24 20 21 21 21 22 22 23 24 24 24 23 23 23 23 25 23 21 21 20 19 20 20 20 20 16 15 17 19 20 21 21 23 24 25 26 27 27 27 28 29 30 32 35 38 39 36 37 40 35 36 42 41 35 35 36 35 31 26 25 26 26 26 25 27 28 26 24
13 13 13 14 14 14 14 16 19 22 25 26 24 23 25 28 31 33 35 34 28 23 23 23 23 23 23 24 24 24 24 22 21 22 23 23 21 20 20 19 19 20 20 19 17 14 15 17 18 19 21 21 21 23 24 24 25 24 24 24 26 28 30 34 35 36 37 36 36 34 32 39 42 37 35 35 33 31 29 27 27 27 26 24 24 26 26 24
13 13 13 14 14 14 14 16 18 20 23 26 25 24 26 30 32 35 38 33 28 26 25 25 25 25 25 25 24 24 23 22 20 21 22 20 21 21 19 19 19 19 20 18 16 15 14 17 18 18 20 20 20 21 22 22 22 22 22 24 27 29 29 33 33 33 37 36 32 32 31 37 42 37 32 32 31 30 30 29 29 29 27 26 25 25 23 21
13 13 13 14 14 13 14 16 18 19 21 25 27 25 29 33 33 36 38 33 32 32 29 29 27 26 25 23 23 23 22 21 20 20 21 20 21 22 20 20 21 24 28 22 17 16 16 17 18 18 20 20 19 20 21 20 20 21 21 23 31 34 31 33 34 32 33 32 28 29 31 35 37 33 30 31 30 29 28 27 28 28 26 26 26 24 20 18
13 13 13 13 13 12 13 16 17 18 21 25 27 26 30 35 35 36 37 35 39 37 32 30 27 25 25 23 21 20 20 21 19 19 20 20 21 20 20 20 19 26 31 25 19 19 17 17 17 18 20 20 19 20 21 21 20 21 21 22 30 34 29 29 31 29 30 29 26 27 31 34 35 31 28 28 29 27 27 26 25 25 24 24 25 24 21 18
12 13 13 13 12 12 12 14 17 19 22 26 27 27 31 35 35 37 37 36 39 37 32 30 26 24 25 23 21 19 20 21 19 19 19 18 20 21 21 21 19 22 23 22 23 23 22 24 21 19 20 19 18 18 19 20 20 20 20 19 24 27 25 28 29 28 28 26 25 27 29 31 34 31 27 27 27 26 26 26 25 25 23 23 24 25 25 22
11 12 14 14 14 13 12 13 16 19 23 26 27 27 31 34 34 36 37 36 36 34 31 28 24 24 24 22 21 20 20 21 19 18 18 17 19 21 21 21 20 21 21 22 25 23 24 27 23 20 21 19 18 17 17 20 22 21 19 20 23 23 22 26 27 25 25 24 25 27 28 28 28 28 26 26 26 26 27 27 27 27 25 24 26 28 28 25
11 12 14 16 17 15 12 13 15 18 23 26 26 25 28 31 32 34 35 35 35 32 29 26 23 23 23 21 22 21 20 20 19 18 18 17 19 21 21 21 21 23 23 23 25 23 24 26 22 20 22 19 19 18 17 21 24 22 20 21 22 21 21 23 25 24 23 24 24 24 25 26 27 28 27 25 27 28 28 28 29 28 26 26 28 29 29 27
12 12 14 18 19 16 13 13 14 17 22 26 26 26 27 29 30 31 32 33 32 29 28 29 26 23 23 22 21 21 20 20 19 19 20 20 22 22 22 21 22 23 23 22 23 22 23 25 23 20 22 22 20 19 18 19 21 22 22 20 20 22 23 22 23 22 20 21 22 22 23 23 25 29 28 26 29 31 29 29 29 28 27 28 29 28 28 27
13 12 16 19 19 17 16 14 13 16 21 24 26 27 26 27 28 29 31 31 30 27 26 30 29 24 23 23 21 20 20 21 21 20 20 21 23 23 21 20 21 22 22 22 21 20 20 23 23 20 21 23 20 20 23 20 18 20 20 18 20 26 28 25 23 22 21 19 21 22 22 21 22 26 28 29 32 33 31 29 30 30 29 27 28 28 27 29
14 15 18 20 19 20 18 14 13 16 20 22 25 27 25 25 26 28 30 31 29 27 26 27 27 24 23 23 23 21 21 22 22 21 21 21 24 24 20 20 22 22 22 22 20 19 19 22 25 23 22 22 22 24 27 25 22 20 19 19 20 22 25 25 24 24 23 20 19 19 22 24 22 22 25 28 29 30 29 28 30 31 29 27 28 28 29 31
15 16 19 20 20 20 17 15 15 15 18 21 23 26 26 25 26 27 29 30 29 28 27 25 25 25 25 24 23 23 23 23 22 22 22 23 25 25 22 21 23 22 22 23 21 20 20 21 24 24 21 22 25 26 26 26 25 23 22 22 21 20 20 23 23 23 22 20 19 17 19 23 22 17 20 24 25 25 26 27 28 28 28 29 28 28 30 32
16 18 20 21 21 19 17 17 16 14 16 20 21 24 27 27 26 27 28 30 30 29 28 26 25 27 27 25 25 25 24 23 22 22 22 22 24 25 24 23 24 23 23 24 23 23 22 20 21 23 24 24 26 25 23 23 25 24 23 21 19 19 20 22 23 22 20 19 18 16 16 22 21 16 18 22 23 23 24 25 28 26 27 30 29 29 32 33
18 19 20 21 21 19 18 18 17 15 16 18 18 21 26 27 25 26 28 29 29 29 28 27 26 26 26 26 28 26 23 24 24 23 22 22 23 25 25 25 26 25 25 26 25 25 24 21 19 22 25 24 23 23 23 23 24 24 23 19 17 18 20 22 22 23 23 20 19 18 17 21 21 16 19 23 22 23 24 25 27 27 28 30 30 30 32 33
19 19 19 20 21 21 20 19 17 15 16 17 16 18 22 25 24 25 27 29 29 29 29 27 26 26 26 26 28 29 27 27 26 23 22 22 22 25 25 26 28 27 27 28 27 26 25 23 22 23 23 22 22 22 22 23 23 25 25 23 22 22 22 23 23 23 24 22 21 20 18 22 23 18 21 24 24 25 26 26 28 28 29 31 31 31 33 33
20 20 19 21 23 22 22 21 18 16 16 16 16 16 19 22 23 24 26 28 30 30 30 30 28 28 27 26 29 32 30 29 28 25 25 25 24 26 26 28 28 27 28 30 29 28 26 24 23 25 26 27 27 25 25 26 26 27 28 27 28 27 24 26 25 21 21 22 21 18 18 24 25 20 22 26 26 27 28 28 29 29 30 32 33 33 34 34
22 21 20 23 27 25 24 23 21 20 18 16 16 17 17 19 21 23 25 26 28 30 31 33 32 29 27 28 31 33 31 31 32 30 28 28 28 28 29 29 28 28 30 32 30 28 27 26 23 22 24 27 29 30 32 32 29 28 28 27 29 28 25 26 24 21 22 23 21 19 20 25 25 22 26 29 28 30 31 30 29 30 31 34 35 35 35 35
23 22 22 27 30 28 26 25 22 23 21 18 19 19 17 19 21 22 24 25 26 28 30 33 33 32 31 31 34 35 32 30 31 31 31 31 30 30 32 32 30 30 31 30 28 27 27 26 23 21 21 25 28 29 30 30 28 29 30 29 28 27 26 24 23 23 25 24 24 24 23 25 26 25 28 30 30 31 32 30 30 30 32 34 36 36 35 36
24 26 27 31 35 32 30 28 25 25 25 23 23 23 19 19 20 21 23 24 25 27 29 30 33 35 35 34 35 37 36 33 32 31 31 30 29 30 32 33 31 30 30 28 27 27 27 27 25 23 22 22 24 25 25 26 28 30 32 30 27 26 26 24 23 25 25 24 29 31 26 26 28 27 27 30 30 29 29 28 28 29 31 34 36 36 35 36
25 30 33 35 40 38 35 33 30 28 27 26 27 27 24 21 21 21 23 23 23 26 28 30 32 33 35 35 35 37 38 38 37 35 31 28 28 28 29 29 29 29 29 27 27 28 28 28 27 25 24 21 21 23 23 24 27 27 28 28 27 26 25 25 25 26 25 26 31 32 28 28 29 28 29 31 29 27 28 29 29 30 32 33 35 36 36 37
27 31 34 36 40 41 38 36 34 32 30 29 29 28 27 26 25 24 23 23 23 24 27 31 33 33 33 34 35 37 38 38 38 38 34 29 28 27 28 28 27 27 28 27 29 30 29 28 26 24 25 23 21 22 23 23 25 26 25 25 25 24 24 25 27 27 27 29 31 31 30 29 28 29 30 29 29 29 30 32 32 33 34 34 35 36 37 37
30 33 37 39 39 41 42 40 37 36 35 33 32 30 29 28 28 27 26 25 26 27 28 30 33 34 35 34 34 35 37 36 38 39 36 33 31 30 29 29 27 26 27 28 30 31 28 29 28 24 25 26 23 23 24 23 24 26 25 24 24 24 26 26 27 28 28 29 32 32 31 31 30 29 28 28 30 30 31 33 34 34 35 36 37 38 37 37
31 31 36 40 39 40 43 42 39 39 38 37 35 33 31 30 28 29 28 26 28 29 29 30 33 35 36 34 33 35 37 36 36 36 35 33 33 31 30 29 28 27 28 28 29 29 26 28 28 24 25 28 25 23 24 23 23 25 25 24 24 25 26 26 28 29 28 30 32 33 34 35 33 29 27 28 30 29 30 32 34 36 37 38 39 39 38 37
32 32 34 39 39 38 41 43 42 42 41 40 38 34 33 31 28 28 29 28 29 31 30 30 33 36 37 37 36 37 38 37 36 35 34 32 31 30 29 29 28 27 28 28 28 28 26 26 27 25 25 28 26 24 25 26 25 27 26 24 24 25 26 27 28 30 31 31 32 32 34 36 33 28 28 30 28 28 29 31 32 34 36 37 39 38 37 38